Zurück zum Katalog

COSMOS 828

AktivMilitärLEO
NORAD 8892·PAYLOAD·🇷🇺 Russia

Gestartet Jun 15, 1976 von Plesetsk Cosmodrome

Loading…

Nächste Überflüge (nächste 24 Stunden)

TLE

AktuellSource: Space-Track

Epoche: Sep 14, 2026, 14:47 UTC

1 08892U 76054D   26257.61599690 -.00000004  00000-0  81197-4 0  9991
2 08892  73.9989 120.5548 0036571 267.9852 105.7929 12.50989280294686

Verfolge COSMOS 828 in Echtzeit mit AllMySat

Download on the App Store